Showing default

LEMUR 2 LANGER2SPACE, 63358

Orbit data source: Space-Track

LEMUR 2 LANGER2SPACE, 63358 is a payload satellite owned by OroraTech (US) in SSO that was launched on Wed, 26 Mar 2025 UTC via an ELECTRON launch vehicle from the Rocket Lab Launch Complex (RLLC). Payload-class satellites include a variety of spacecraft equipped with specific instruments for various scientific and technological missions. These include communications satellites like Starlink; space stations such as the ISS; scientific satellites like the Hubble; Earth observation satellites from companies like Planet Labs, Umbra, and HawkEye 360; GPS; miniature CubeSats for education and research; and military/defense satellites.

Loading next visibility...
Identifier
63358, 2025-061H
Orbit
SSO
Last TLE update
7 hours ago
Origin
Manufacturer
Spire/Glasgow
Mission
Operational Commercial Imaging
Bus & Motor
CUBESAT 6U, Unknown motor
Mass
~15 kg wet, ~15 kg dry
Launch date (UTC)
2025-03-26 (3 months ago)
Launch vehicle
ELECTRON
Launch site
Rocket Lab Launch Complex (RLLC)
Object type
Payload
Rocket body
Debris
Shape & HBR
Box + 2 Pan, 0.4 m
Radar Cross Section
0.065 m², Medium (>0.1 m² and < 1m²)

Expand to show TLE details & history

TLE from 7 hours ago
0 LEMUR 2 LANGER2SPACE
1 63358U 25061H   25183.82031537  .00003358  00000-0  20771-3 0  9996
2 63358  97.5195 158.6686 0018935  25.8748 334.3424 15.10363016 14816
Epoch: 2025-07-02T19:41Z
TLE epoch observation values (Epoch: 2025-07-02T19:41:15.247Z)
Latitude
-0.00008°
Longitude
-57.74085°
Altitude
526.369 km
Speed
7.606 km/s
True Right ascension
10h 34m 40s
True Declination
0° 00' 00"
Sunlit
Object was in daylight at epoch
Visualization orbit readout
Latitude
-5.66735°
Longitude
121.80639°
Altitude
551.426 km
Speed
7.579 km/s
Apparent Right ascension
00h 12m 09s
Apparent Declination
-24° 57' 08"
Sunlit
Object is in full shadow
Visualization observer readout
Local Sidereal Time
14:37:02
Azimuth
74.781° E
Elevation
-56.271°
Doppler factor
1
Orbital elements
Apogee altitude
545.16 km
Perigee altitude
518.991 km
Semi-major axis
6,910.213 km
Eccentricity
0.00189
Inclination
97.5195°
RAAN
158.6686°
Arg. of periapsis
25.8748°
True anomaly
Unknown
Mean anomaly
334.3424°
Eccentric anomaly
Unknown
Mean motion
3.77838 °/min
Orbital period
95.28 mins
BSTAR
0.00020771
Loading maneuver chart data...
Loading SW <> Apogee altitude chart data...
Loading historical data...
Loading historical data...
Loading historical data...
Loading historical data...
Loading historical data...
Loading historical data...
Loading historical data...

LEMUR 2 LANGER2SPACE Visibility forecast

Observer location: undefined°, undefined°

Span
Click to sort rows by Start time (UTC) header in descending order
Start Az.
Max El. time (UTC)
Max El. Az.
Max El.
End time (UTC)
End Az.
6 mins2025-07-03 10:33:57.442Z37.514° NE2025-07-03 10:36:57.442Z92.27° ESE25.396°2025-07-03 10:39:57.442Z152.867° SSE
4 mins2025-07-03 12:09:57.442Z318.99° NNW2025-07-03 12:10:57.442Z299.844° NW17.989°2025-07-03 12:13:57.442Z247.364° WSW
5 mins2025-07-03 22:50:57.442Z200.575° SSW2025-07-03 22:52:57.442Z242.896° WSW30.411°2025-07-03 22:55:57.442Z323.479° NNW
|